FW8114 Weather Reports


time (UTC)temp
C
wind
direction
speed
KPH
gust
KPH
rain 1hr
cm
rain 24hr
cm
rain mn
cm
humidity
%
barometer
mb
20260504175207 21 213 6.4 8.0 0.00 0.00 0.00 37 1011.7
20260504174705 21 187 4.8 8.0 0.00 0.00 0.00 37 1012.0
20260504174202 21 223 8.0 11.3 0.00 0.00 0.00 37 1011.8
20260504173658 21 310 6.4 8.0 0.00 0.00 0.00 39 1012.1
20260504173156 21 322 8.0 12.9 0.00 0.00 0.00 39 1012.0
20260504172652 20 240 4.8 16.1 0.00 0.00 0.00 40 1012.0
20260504172149 20 242 9.7 11.3 0.00 0.00 0.00 39 1012.1
20260504171645 21 256 4.8 4.8 0.00 0.00 0.00 38 1012.2
20260504171143 20 249 8.0 9.7 0.00 0.00 0.00 39 1012.2
20260504170639 20 250 14.5 17.7 0.00 0.00 0.00 37 1012.3
20260504170136 20 203 6.4 9.7 0.00 0.00 0.00 42 1012.3
20260504151022 18 216 9.7 16.1 0.00 0.00 0.00 42 1013.7
20260504150519 18 246 14.5 20.9 0.00 0.00 0.00 43 1013.6
20260504140945 17 223 1.6 3.2 0.00 0.00 0.00 50 1013.9
20260504140442 17 211 4.8 8.0 0.00 0.00 0.00 49 1014.2
20260504130406 13 257 8.0 9.7 0.00 0.00 0.00 59 1015.0
20260504110248 2 233 0.0 0.0 0.00 0.00 0.00 93 1015.6
20260504100211 1 234 0.0 0.0 0.00 0.00 0.00 93 1015.4
20260504090134 2 225 0.0 0.0 0.00 0.00 0.00 92 1015.1
20260504081604 2 232 0.0 0.0 0.00 0.00 0.00 92 1015.0
20260504081100 2 226 0.0 0.0 0.00 0.00 0.00 92 1014.9
20260504080557 2 225 0.0 0.0 0.00 0.00 0.00 92 1014.8
20260504050409 3 240 0.0 0.0 0.00 0.00 0.00 84 1014.5
20260504045906 3 242 0.0 0.0 0.00 0.00 0.00 83 1014.5
20260504045402 3 230 0.0 0.0 0.00 0.00 0.00 83 1014.3
20260504044859 3 231 0.0 0.0 0.00 0.00 0.00 82 1014.4
20260504044356 4 220 0.0 0.0 0.00 0.00 0.00 81 1014.2
20260504043854 4 246 0.0 0.0 0.00 0.00 0.00 80 1014.5
20260504043350 4 228 0.0 0.0 0.00 0.00 0.00 79 1014.3
20260504042848 5 230 0.0 0.0 0.00 0.00 0.00 78 1014.4
20260504042344 5 226 0.0 0.0 0.00 0.00 0.00 78 1014.4
20260504041840 5 224 0.0 0.0 0.00 0.00 0.00 79 1014.2
20260504041336 5 224 0.0 0.0 0.00 0.00 0.00 79 1014.5
20260504040832 5 228 0.0 0.0 0.00 0.00 0.00 79 1014.2
20260504040331 5 227 0.0 0.0 0.00 0.00 0.00 78 1014.1
20260504035826 5 229 0.0 0.0 0.00 0.00 0.00 77 1014.2
20260504035324 5 231 0.0 0.0 0.00 0.00 0.00 76 1013.8
20260504034820 5 224 0.0 0.0 0.00 0.00 0.00 76 1013.8
20260504034318 5 224 0.0 0.0 0.00 0.00 0.00 75 1013.9
20260504033815 5 215 0.0 0.0 0.00 0.00 0.00 75 1013.9
20260504033313 5 200 0.0 0.0 0.00 0.00 0.00 78 1013.5
20260504032809 5 223 0.0 0.0 0.00 0.00 0.00 77 1013.7
20260504032307 5 225 0.0 0.0 0.00 0.00 0.00 79 1013.8
20260504031803 5 224 0.0 0.0 0.00 0.00 0.00 78 1013.8
20260504031301 5 227 0.0 0.0 0.00 0.00 0.00 78 1013.7
20260504030757 5 223 0.0 0.0 0.00 0.00 0.00 78 1013.7
20260504030254 5 227 0.0 0.0 0.00 0.00 0.00 78 1013.6
20260504025750 5 221 0.0 0.0 0.00 0.00 0.00 77 1013.6
20260504025247 5 230 0.0 0.0 0.00 0.00 0.00 74 1013.8
20260504024744 6 228 0.0 0.0 0.00 0.00 0.00 74 1013.8
20260504024241 6 227 0.0 0.0 0.00 0.00 0.00 73 1013.7
20260504023738 6 226 0.0 0.0 0.00 0.00 0.00 73 1013.8
20260504023234 6 212 0.0 0.0 0.00 0.00 0.00 74 1013.8
20260504022730 6 230 0.0 0.0 0.00 0.00 0.00 72 1013.6
20260504022226 6 224 0.0 0.0 0.00 0.00 0.00 72 1013.7
20260504021723 6 226 0.0 0.0 0.00 0.00 0.00 73 1013.7
20260504021221 6 225 0.0 0.0 0.00 0.00 0.00 72 1013.9
20260504020717 6 227 0.0 0.0 0.00 0.00 0.00 71 1013.7
20260504020214 6 223 0.0 0.0 0.00 0.00 0.00 71 1013.7
20260504015710 7 216 0.0 0.0 0.00 0.00 0.00 74 1013.6
20260504015207 7 221 0.0 0.0 0.00 0.00 0.00 72 1013.7
20260504014702 7 228 0.0 0.0 0.00 0.00 0.00 69 1013.6
20260504014159 7 232 0.0 0.0 0.00 0.00 0.00 67 1013.5
20260504013657 7 226 0.0 0.0 0.00 0.00 0.00 66 1013.4
20260504013154 7 218 0.0 0.0 0.00 0.00 0.00 66 1013.6
20260504012651 7 225 0.0 0.0 0.00 0.00 0.00 67 1013.3
20260504012149 7 226 0.0 0.0 0.00 0.00 0.00 69 1013.2
20260504011645 7 228 0.0 0.0 0.00 0.00 0.00 69 1013.3
20260504011142 7 227 0.0 0.0 0.00 0.00 0.00 68 1013.1
20260504010638 7 221 0.0 0.0 0.00 0.00 0.00 66 1013.1
20260504010134 8 233 0.0 0.0 0.00 0.00 0.00 64 1013.0
20260504005631 8 228 0.0 0.0 0.00 0.00 0.00 64 1013.0
20260504005128 8 225 0.0 0.0 0.00 0.00 0.00 64 1012.9
20260504004626 8 226 0.0 0.0 0.00 0.00 0.00 63 1012.8
20260504004123 9 224 0.0 0.0 0.00 0.00 0.00 64 1013.0
20260504003619 9 226 0.0 0.0 0.00 0.00 0.00 59 1012.9
20260504003115 10 228 0.0 0.0 0.00 0.00 0.00 56 1012.6
20260504002612 10 226 0.0 0.0 0.00 0.00 0.00 60 1012.4
20260504002110 11 225 0.0 0.0 0.00 0.00 0.00 52 1012.7
20260504001608 11 227 0.0 0.0 0.00 0.00 0.00 48 1012.5
20260504001103 11 228 0.0 0.0 0.00 0.00 0.00 44 1012.3
20260504000601 12 230 0.0 0.0 0.00 0.00 0.00 40 1012.2
20260504000058 13 228 0.0 0.0 0.00 0.00 0.00 39 1012.3
20260503235556 13 241 0.0 0.0 0.00 0.00 0.00 37 1012.1
20260503235053 13 233 0.0 0.0 0.00 0.00 0.00 36 1012.4
20260503234551 14 242 0.0 0.0 0.00 0.00 0.00 36 1012.1
20260503234049 14 244 0.0 0.0 0.00 0.00 0.00 34 1012.0
20260503233545 15 317 4.8 4.8 0.00 0.00 0.00 34 1012.1
20260503233041 15 297 4.8 8.0 0.00 0.00 0.00 34 1012.1
20260503232538 15 340 6.4 9.7 0.00 0.00 0.00 33 1011.8
20260503232036 15 302 4.8 4.8 0.00 0.00 0.00 34 1012.0
20260503231533 15 250 4.8 8.0 0.00 0.00 0.00 33 1011.8
20260503231030 15 233 0.0 1.6 0.00 0.00 0.00 33 1011.7
20260503230526 16 266 0.0 1.6 0.00 0.00 0.00 32 1011.7
20260503230024 16 246 4.8 9.7 0.00 0.00 0.00 32 1011.9
20260503225521 16 298 6.4 9.7 0.00 0.00 0.00 32 1011.7
20260503225016 16 317 9.7 14.5 0.00 0.00 0.00 31 1011.7
20260503224514 16 297 8.0 11.3 0.00 0.00 0.00 30 1011.6
20260503224011 16 317 3.2 3.2 0.00 0.00 0.00 32 1011.7
20260503223509 16 307 6.4 9.7 0.00 0.00 0.00 31 1011.6
20260503223004 15 245 6.4 8.0 0.00 0.00 0.00 32 1011.8
20260503222503 16 254 6.4 8.0 0.00 0.00 0.00 30 1011.7
20260503222000 16 229 1.6 1.6 0.00 0.00 0.00 32 1011.7
20260503221458 16 317 4.8 4.8 0.00 0.00 0.00 31 1011.7
20260503220955 16 281 4.8 4.8 0.00 0.00 0.00 31 1011.6
20260503220452 16 238 6.4 8.0 0.00 0.00 0.00 31 1011.7
20260503215948 16 301 4.8 4.8 0.00 0.00 0.00 32 1011.5
20260503215445 16 233 4.8 9.7 0.00 0.00 0.00 33 1011.6
20260503214943 16 290 3.2 8.0 0.00 0.00 0.00 31 1011.7
20260503214441 15 238 8.0 11.3 0.00 0.00 0.00 30 1011.7
20260503213938 15 315 4.8 8.0 0.00 0.00 0.00 30 1011.6
20260503213436 15 280 12.9 17.7 0.00 0.00 0.00 31 1011.6
20260503212932 16 335 9.7 14.5 0.00 0.00 0.00 32 1011.5
20260503212430 15 325 16.1 24.1 0.00 0.00 0.00 30 1011.5
20260503211927 16 281 4.8 4.8 0.00 0.00 0.00 33 1011.5
20260503211424 15 262 8.0 11.3 0.00 0.00 0.00 32 1011.6
20260503210919 15 318 1.6 8.0 0.00 0.00 0.00 33 1011.8
20260503210416 15 324 6.4 9.7 0.00 0.00 0.00 32 1011.6
20260503205910 15 293 11.3 14.5 0.00 0.00 0.00 30 1011.6
20260503205408 15 226 9.7 11.3 0.00 0.00 0.00 32 1011.6
20260503204904 15 8 6.4 8.0 0.00 0.00 0.00 32 1011.7
20260503204401 15 309 14.5 17.7 0.00 0.00 0.00 31 1011.6
20260503203859 15 264 16.1 20.9 0.00 0.00 0.00 31 1011.6
20260503203356 15 323 11.3 17.7 0.00 0.00 0.00 32 1011.6
20260503202852 15 251 11.3 16.1 0.00 0.00 0.00 32 1011.8
20260503202351 15 302 9.7 14.5 0.00 0.00 0.00 33 1011.8
20260503201849 15 335 17.7 20.9 0.00 0.00 0.00 31 1011.8
20260503201345 15 331 11.3 12.9 0.00 0.00 0.00 30 1011.8
20260503200843 15 282 4.8 8.0 0.00 0.00 0.00 33 1011.8
20260503200338 14 315 16.1 25.7 0.00 0.00 0.00 33 1011.9
20260503195836 14 1 14.5 20.9 0.00 0.00 0.00 32 1012.0
20260503195332 15 350 12.9 17.7 0.00 0.00 0.00 31 1012.0
20260503194830 15 294 17.7 24.1 0.00 0.00 0.00 32 1012.2
20260503194326 15 238 1.6 3.2 0.00 0.00 0.00 32 1011.9
20260503193822 15 216 4.8 8.0 0.00 0.00 0.00 34 1012.0
20260503193318 15 338 6.4 8.0 0.00 0.00 0.00 32 1012.0
20260503192814 15 233 11.3 16.1 0.00 0.00 0.00 33 1012.3
20260503192310 15 232 12.9 14.5 0.00 0.00 0.00 33 1012.2
20260503191806 14 332 19.3 22.5 0.00 0.00 0.00 31 1012.2
20260503191303 14 354 4.8 9.7 0.00 0.00 0.00 36 1012.2
20260503190800 14 285 16.1 20.9 0.00 0.00 0.00 31 1012.2
20260503190257 14 328 17.7 24.1 0.00 0.00 0.00 34 1012.3
20260503185754 14 317 16.1 20.9 0.00 0.00 0.00 33 1012.3
20260503185250 14 323 14.5 20.9 0.00 0.00 0.00 35 1012.4
20260503184744 13 290 3.2 4.8 0.00 0.00 0.00 34 1012.7
20260503184241 14 245 9.7 12.9 0.00 0.00 0.00 37 1012.3
20260503183737 14 252 14.5 24.1 0.00 0.00 0.00 34 1012.5
20260503183235 14 318 22.5 32.2 0.00 0.00 0.00 33 1012.7
20260503182732 14 322 27.4 33.8 0.00 0.00 0.00 36 1012.7
20260503182231 13 300 8.0 11.3 0.00 0.00 0.00 37 1012.7
20260503181728 13 266 12.9 16.1 0.00 0.00 0.00 33 1012.7
20260503181225 13 320 17.7 24.1 0.00 0.00 0.00 35 1012.5
20260503180721 13 307 9.7 12.9 0.00 0.00 0.00 36 1012.7
20260503180219 13 288 8.0 11.3 0.00 0.00 0.00 36 1012.7
20260503175715 13 341 9.7 11.3 0.00 0.00 0.00 37 1012.8